Overview Statistics Trail Chart Weather Telemetry Raw packets
 

This is the latest recevied weather packets stored in our database for station/object OK1VOF-13. If no packets are shown the sender has not sent any weather packets the latest 10 day(s).

<< 45 46 47 48 49 50 51 >>
Time Temp. Humidity Pressure Rain* Wind** Luminosity Snow
1788000735 20.56° C 75% 1018.8 hPa 0 mm - - -
1787999832 20° C 78% 1018.9 hPa 0 mm - - -
1787999540 20° C 80% 1018.8 hPa 0 mm - - -
1787999235 20° C 80% 1018.8 hPa 0 mm - - -
1787998637 19.44° C 81% 1018.8 hPa 0 mm - - -
1787998338 19.44° C 82% 1018.9 hPa 0 mm - - -
1787998040 19.44° C 83% 1018.9 hPa 0 mm - - -
1787997747 19.44° C 85% 1018.8 hPa 0 mm - - -
1787997449 19.44° C 88% 1018.9 hPa 0 mm - - -
1787997150 19.44° C 89% 1018.8 hPa 0 mm - - -
1787996845 18.89° C 88% 1018.9 hPa 0 mm - - -
1787996254 18.89° C 87% 1019 hPa 0 mm - - -
1787995643 18.89° C 87% 1018.9 hPa 112.01 mm - - -
1787995341 18.89° C 86% 1018.8 hPa 112.01 mm - - -
1787994435 18.89° C 88% 1019 hPa 119.89 mm - - -
1787993831 18.89° C 92% 1019 hPa 119.89 mm - - -
1787993234 18.89° C 97% 1019 hPa 119.89 mm - - -
1787992932 18.89° C 100% 1018.9 hPa 119.89 mm - - -
1787992635 18.89° C 100% 1018.9 hPa 119.89 mm - - -
1787992245 18.33° C 100% 1018.9 hPa 46.99 mm - - -
1787991615 18.33° C 100% 1019 hPa 7.87 mm - - -
1787991308 18.33° C 100% 1018.9 hPa 0 mm - - -
1787991009 18.33° C 100% 1018.9 hPa 0 mm - - -
1787990710 18.33° C 100% 1018.8 hPa 0 mm - - -
1787989515 17.78° C 100% 1018.4 hPa 0 mm - - -

* Rain latest hour (hover to see other rain measurements)
** Current wind speed in m/s (hover to see current wind gust speed)